Location: downtown San Diego
(32.7310°N, 117.1990°W)
Time: 08:18:56
(UTC-07:00)

USA 234 - Pass Details

Date: 14 June 2018
Orbit: 1102 x 1105 km, 123.0° (Epoch: 17 June)

Event Time Altitude Azimuth Distance (km) Brightness Sun altitude
Rises 23:34:59 0° 41° (NE) 3,924 6.5 -31.2°
Reaches altitude 10° 23:37:28 10° 41° (NE) 2,964 5.8 -31.4°
Enters shadow 23:43:58 87° 339° (NNW) 1,109 3.1 -31.8°
